�N����,����,�g�[���i�䏊�j���x,�g�[�����x,��g�[���i���ցj���x,����
 2003/10/01, 0:00,24.3,48,20.7,24.2
 2003/10/01, 0:15,24.3,48,20.6,24.2
 2003/10/01, 0:30,24.2,47,20.4,24.1
 2003/10/01, 0:45,24,47,20.4,24.1
 2003/10/01, 1:00,23.9,47,20.3,24.1
 2003/10/01, 1:15,23.9,47,20.3,24
 2003/10/01, 1:30,23.7,47,20.2,24
 2003/10/01, 1:45,23.6,47,20.2,23.4
 2003/10/01, 2:00,23.6,47,20.2,23.4
 2003/10/01, 2:15,23.4,47,20,23.4
 2003/10/01, 2:30,23.3,47,19.8,23.4
 2003/10/01, 2:45,23.3,47,19.8,23.4
 2003/10/01, 3:00,23.3,47,19.8,23.3
 2003/10/01, 3:15,23.3,47,19.7,23.3
 2003/10/01, 3:30,23.1,47,19.6,23.3
 2003/10/01, 3:45,22.9,47,19.7,23.3
 2003/10/01, 4:00,22.9,47,19.7,23.2
 2003/10/01, 4:15,22.9,47,19.3,23.1
 2003/10/01, 4:30,22.8,46,19.3,23.1
 2003/10/01, 4:45,22.7,46,19.3,23.1
 2003/10/01, 5:00,22.6,46,19.3,23
 2003/10/01, 5:15,22.5,46,19.3,23
 2003/10/01, 5:30,22.2,46,19.2,23
 2003/10/01, 5:45,22.2,46,19.2,23
 2003/10/01, 6:00,22.1,46,19.2,22.9
 2003/10/01, 6:15,22,47,19.1,22.9
 2003/10/01, 6:30,22.1,49,19,22.9
 2003/10/01, 6:45,22.3,52,19.1,24.1
 2003/10/01, 7:00,22.2,52,19.1,24
 2003/10/01, 7:15,22.4,51,19,23.8
 2003/10/01, 7:30,22.4,51,19,24.1
 2003/10/01, 7:45,22.5,51,19.1,24.1
 2003/10/01, 8:00,22.4,51,19.3,24.3
 2003/10/01, 8:15,22.4,49,19.4,24.2
 2003/10/01, 8:30,22.4,49,20,24.2
 2003/10/01, 8:45,22.2,45,20.4,24.1
 2003/10/01, 9:00,22.2,44,20.4,24.1
 2003/10/01, 9:15,22.2,43,20.5,24
 2003/10/01, 9:30,22.2,43,20.7,24
 2003/10/01, 9:45,22.3,43,20.8,23.7
 2003/10/01,10:00,22.4,44,20.9,23.6
 2003/10/01,10:15,22.3,44,21,23.6
 2003/10/01,10:30,22.4,45,21.2,23.6
 2003/10/01,10:45,22.6,45,21.4,23.5
 2003/10/01,11:00,22.6,45,21.5,23.5
 2003/10/01,11:15,22.6,45,21.5,23.5
 2003/10/01,11:30,22.7,44,21.6,23.5
 2003/10/01,11:45,22.7,45,21.7,23.4
 2003/10/01,12:00,22.7,45,21.7,23.4
 2003/10/01,12:15,22.9,45,21.8,23.4
 2003/10/01,12:30,22.9,45,21.8,23.4
 2003/10/01,12:45,22.9,45,21.9,23.3
 2003/10/01,13:00,23,44,22,23.3
 2003/10/01,13:15,23.2,44,22.1,23.3
 2003/10/01,13:30,23.1,44,22.1,23.3
 2003/10/01,13:45,23.2,45,22.2,23.3
 2003/10/01,14:00,23.4,44,22.3,23.3
 2003/10/01,14:15,23.4,44,22.4,23.2
 2003/10/01,14:30,23.5,44,22.4,23
 2003/10/01,14:45,23.7,45,22.6,23
 2003/10/01,15:00,23.7,45,22.7,23.4
 2003/10/01,15:15,23.9,45,22.7,23.4
 2003/10/01,15:30,24.1,44,22.7,23.4
 2003/10/01,15:45,24.3,44,22.8,23.4
 2003/10/01,16:00,24.3,44,22.9,23.4
 2003/10/01,16:15,24.6,43,23,23.3
 2003/10/01,16:30,24.8,43,23.1,23.3
 2003/10/01,16:45,25.1,43,23.1,23.3
 2003/10/01,17:00,25.3,43,23.2,23.3
 2003/10/01,17:15,25.2,43,23.3,23.1
 2003/10/01,17:30,25.2,43,23.2,23.1
 2003/10/01,17:45,25.4,43,23.2,23.1
 2003/10/01,18:00,25.5,44,23.1,24.1
 2003/10/01,18:15,25.5,43,23,24.3
 2003/10/01,18:30,25.4,43,22.9,24.3
 2003/10/01,18:45,25.2,44,22.9,24.3
 2003/10/01,19:00,25.2,45,22.8,24.3
 2003/10/01,19:15,25.4,45,22.8,24.3
 2003/10/01,19:30,25.5,45,22.7,24.3
 2003/10/01,19:45,25.6,45,22.6,24.3
 2003/10/01,20:00,25.6,46,22.6,24.3
 2003/10/01,20:15,25.8,50,22.7,24.2
 2003/10/01,20:30,26,50,22.7,24.2
 2003/10/01,20:45,26,49,22.7,23.9
 2003/10/01,21:00,26,53,22.7,23.9
 2003/10/01,21:15,25.7,50,22.7,24.2
 2003/10/01,21:30,25.9,50,22.7,24.1
 2003/10/01,21:45,26,49,22.8,24.1
 2003/10/01,22:00,26,50,22.7,24.1
 2003/10/01,22:15,25.8,52,22.7,24.1
 2003/10/01,22:30,25.8,52,22.7,23.8
 2003/10/01,22:45,25.8,51,22.7,24.3
 2003/10/01,23:00,25.6,49,22.7,24.3
 2003/10/01,23:15,25.4,50,22.8,24.3
 2003/10/01,23:30,25.5,49,22.8,24.3
 2003/10/01,23:45,25.5,49,22.9,24.3
 2003/10/02, 0:00,25.4,49,22.8,24.3
 2003/10/02, 0:15,25.4,49,22.8,24.3
 2003/10/02, 0:30,25.4,49,22.9,24.1
 2003/10/02, 0:45,25.3,48,22.8,24.1
 2003/10/02, 1:00,25.1,48,22.8,24.1
 2003/10/02, 1:15,25.1,48,22.8,24.1
 2003/10/02, 1:30,25.1,48,22.7,24.1
 2003/10/02, 1:45,24.9,48,22.7,24.1
 2003/10/02, 2:00,24.8,48,22.7,24.1
 2003/10/02, 2:15,24.8,48,22.7,24.1
 2003/10/02, 2:30,24.8,48,22.6,24.1
 2003/10/02, 2:45,24.6,49,22.6,24.1
 2003/10/02, 3:00,24.6,49,22.6,23.4
 2003/10/02, 3:15,24.7,49,22.5,23.4
 2003/10/02, 3:30,24.5,49,22.5,23.4
 2003/10/02, 3:45,24.4,50,22.5,23.4
 2003/10/02, 4:00,24.5,50,22.5,23.5
 2003/10/02, 4:15,24.4,50,22.5,23.5
 2003/10/02, 4:30,24.3,50,22.4,23.5
 2003/10/02, 4:45,24.3,50,22.4,23.5
 2003/10/02, 5:00,24.4,50,22.4,23.5
 2003/10/02, 5:15,24.2,50,22.4,23.5
 2003/10/02, 5:30,24.2,50,22.4,23.5
 2003/10/02, 5:45,24.2,50,22.4,23.5
 2003/10/02, 6:00,24.1,50,22.4,23.5
 2003/10/02, 6:15,24.1,51,22.4,23.2
 2003/10/02, 6:30,24.4,53,22.4,23.2
 2003/10/02, 6:45,24.5,53,22.4,23.2
 2003/10/02, 7:00,24.9,54,22.5,24.2
 2003/10/02, 7:15,24.9,54,22.6,24.2
 2003/10/02, 7:30,24.8,53,22.6,24
 2003/10/02, 7:45,24.9,53,22.7,24
 2003/10/02, 8:00,25.2,54,22.7,24
 2003/10/02, 8:15,25.1,53,22.9,24.1
 2003/10/02, 8:30,25,52,23,24.1
 2003/10/02, 8:45,25.2,55,23.2,24.1
 2003/10/02, 9:00,25.4,53,23.3,24.1
 2003/10/02, 9:15,25.5,50,23.4,24.1
 2003/10/02, 9:30,25.6,50,23.5,24.1
 2003/10/02, 9:45,25.7,49,23.6,24.1
 2003/10/02,10:00,25.6,49,23.7,24.1
 2003/10/02,10:15,25.7,49,23.7,24.1
 2003/10/02,10:30,25.8,49,23.8,24.1
 2003/10/02,10:45,25.7,49,23.8,24.1
 2003/10/02,11:00,25.8,49,23.9,24.1
 2003/10/02,11:15,25.9,48,24,24.1
 2003/10/02,11:30,25.8,48,24.1,24.1
 2003/10/02,11:45,26,48,24.2,24.1
 2003/10/02,12:00,26.1,48,24.3,24.1
 2003/10/02,12:15,26,48,24.4,24.1
 2003/10/02,12:30,26.2,48,24.4,24.1
 2003/10/02,12:45,26.2,48,24.5,24.1
 2003/10/02,13:00,26.1,48,24.6,24.1
 2003/10/02,13:15,26.2,47,24.6,24.1
 2003/10/02,13:30,26.3,47,24.7,24.1
 2003/10/02,13:45,26.2,47,24.7,24.1
 2003/10/02,14:00,26.3,47,24.7,24.1
 2003/10/02,14:15,26.3,47,24.8,24.1
 2003/10/02,14:30,26.3,47,24.8,24.1
 2003/10/02,14:45,26.5,48,24.9,24.1
 2003/10/02,15:00,26.7,48,24.9,24.2
 2003/10/02,15:15,26.8,48,25,24.2
 2003/10/02,15:30,27,47,25.1,24.2
 2003/10/02,15:45,27,47,25.2,24.2
 2003/10/02,16:00,27.1,47,25.2,24.2
 2003/10/02,16:15,27.4,46,25.3,24.2
 2003/10/02,16:30,27.6,45,25.3,24.2
 2003/10/02,16:45,27.5,44,25.3,24
 2003/10/02,17:00,27.6,44,25.3,24
 2003/10/02,17:15,27.6,44,25.3,24
 2003/10/02,17:30,27.6,44,25.2,24
 2003/10/02,17:45,27.5,46,25.2,24
 2003/10/02,18:00,27.8,49,25.2,24.1
 2003/10/02,18:15,27.9,48,25.1,24
 2003/10/02,18:30,27.7,47,25.1,24
 2003/10/02,18:45,27.6,46,25,24
 2003/10/02,19:00,27.7,45,24.9,24
 2003/10/02,19:15,27.6,48,24.9,24.3
 2003/10/02,19:30,27.6,50,24.8,24.3
 2003/10/02,19:45,27.5,51,24.8,24.2
 2003/10/02,20:00,27.6,50,24.8,24.3
 2003/10/02,20:15,27.6,48,24.7,24.3
 2003/10/02,20:30,27.6,47,24.6,24.3
 2003/10/02,20:45,27.4,45,24.5,24.1
 2003/10/02,21:00,27.2,44,24.4,24.2
 2003/10/02,21:15,27.1,44,24.4,24.2
 2003/10/02,21:30,27.1,43,24.2,24.2
 2003/10/02,21:45,27.1,44,24.1,24.2
 2003/10/02,22:00,27.1,44,23.9,24.2
 2003/10/02,22:15,27.1,44,23.8,24.2
 2003/10/02,22:30,27.1,45,23.7,24.2
 2003/10/02,22:45,26.9,45,23.7,24.2
 2003/10/02,23:00,26.8,47,23.6,24.1
 2003/10/02,23:15,26.9,48,23.6,24.1
 2003/10/02,23:30,26.8,47,23.5,24.3
 2003/10/02,23:45,26.7,48,23.4,24.1
 2003/10/03, 0:00,26.7,47,23.3,24.1
 2003/10/03, 0:15,26.5,46,23.2,24.1
 2003/10/03, 0:30,26.4,46,23.1,24.1
 2003/10/03, 0:45,26.3,46,23,24.1
 2003/10/03, 1:00,26.3,46,22.9,24.1
 2003/10/03, 1:15,26.1,46,22.9,23.6
 2003/10/03, 1:30,26,45,22.7,23.7
 2003/10/03, 1:45,25.8,45,22.7,23.7
 2003/10/03, 2:00,25.7,45,22.6,23.7
 2003/10/03, 2:15,25.6,45,22.5,23.7
 2003/10/03, 2:30,25.5,45,22.4,23.7
 2003/10/03, 2:45,25.4,45,22.4,23.7
 2003/10/03, 3:00,25.2,45,22.4,23.5
 2003/10/03, 3:15,25.1,45,22.2,23.5
 2003/10/03, 3:30,25,45,22.2,23.5
 2003/10/03, 3:45,24.9,45,22.2,23.5
 2003/10/03, 4:00,24.8,45,22.1,23.5
 2003/10/03, 4:15,24.7,45,22.1,23.5
 2003/10/03, 4:30,24.6,45,22,23.5
 2003/10/03, 4:45,24.5,46,22,23.5
 2003/10/03, 5:00,24.4,46,21.9,23.5
 2003/10/03, 5:15,24.3,46,21.9,23.5
 2003/10/03, 5:30,24.2,46,21.8,23.5
 2003/10/03, 5:45,24.2,46,21.8,23.5
 2003/10/03, 6:00,24.1,46,21.8,23.3
 2003/10/03, 6:15,24.2,49,21.7,23.3
 2003/10/03, 6:30,24.5,50,21.7,23.3
 2003/10/03, 6:45,24.5,51,21.8,23.7
 2003/10/03, 7:00,24.7,53,21.9,23.7
 2003/10/03, 7:15,24.7,50,21.9,23.7
 2003/10/03, 7:30,24.6,49,22,23.9
 2003/10/03, 7:45,24.6,50,22.1,23.9
 2003/10/03, 8:00,24.8,50,22.2,23.9
 2003/10/03, 8:15,24.8,49,22.2,23.9
 2003/10/03, 8:30,24.7,49,22.3,24
 2003/10/03, 8:45,24.7,52,22.4,24
 2003/10/03, 9:00,24.8,49,22.4,24
 2003/10/03, 9:15,24.9,48,22.6,23.7
 2003/10/03, 9:30,25,47,22.7,23.7
 2003/10/03, 9:45,25.1,47,22.9,23.6
 2003/10/03,10:00,25.1,46,22.9,23.6
 2003/10/03,10:15,25.2,46,23.1,23.7
 2003/10/03,10:30,25.1,46,23.3,23.7
 2003/10/03,10:45,25.2,46,23.4,23.6
 2003/10/03,11:00,25.2,46,23.4,23.6
 2003/10/03,11:15,25.2,45,23.4,23.6
 2003/10/03,11:30,25.2,45,23.4,23.6
 2003/10/03,11:45,25.3,45,23.5,23.6
 2003/10/03,12:00,25.3,45,23.5,23.6
 2003/10/03,12:15,25.3,45,23.5,23.6
 2003/10/03,12:30,25.3,45,23.5,23.6
 2003/10/03,12:45,25.3,45,23.5,23.6
 2003/10/03,13:00,25.3,45,23.6,23.6
 2003/10/03,13:15,25.4,45,23.6,23.6
 2003/10/03,13:30,25.3,45,23.6,23.6
 2003/10/03,13:45,25.4,44,23.6,23.6
 2003/10/03,14:00,25.4,44,23.6,23.6
 2003/10/03,14:15,25.5,44,23.7,23.6
 2003/10/03,14:30,25.5,44,23.7,23.6
 2003/10/03,14:45,25.5,44,23.9,23.6
 2003/10/03,15:00,25.6,44,23.8,23.6
 2003/10/03,15:15,25.6,44,23.9,23.6
 2003/10/03,15:30,25.6,43,23.9,23.3
 2003/10/03,15:45,25.7,43,23.9,23.3
 2003/10/03,16:00,25.8,43,23.9,23.4
 2003/10/03,16:15,25.9,42,24,23.4
 2003/10/03,16:30,26.1,42,24,23.4
 2003/10/03,16:45,26,43,23.9,23.4
 2003/10/03,17:00,26.1,42,23.9,23.4
 2003/10/03,17:15,26.1,42,23.9,23.4
 2003/10/03,17:30,26,42,23.8,23.4
 2003/10/03,17:45,25.9,42,23.7,23.4
 2003/10/03,18:00,25.9,41,23.7,23.4
 2003/10/03,18:15,26,43,23.6,23.8
 2003/10/03,18:30,25.9,43,23.6,24
 2003/10/03,18:45,25.9,38,23.5,24
 2003/10/03,19:00,25.8,37,23.4,24
 2003/10/03,19:15,25.6,37,23.3,23.9
 2003/10/03,19:30,25.6,36,23.1,24
 2003/10/03,19:45,25.6,35,23.1,24.2
 2003/10/03,20:00,25.7,38,23,24.2
 2003/10/03,20:15,25.6,40,23,24.2
 2003/10/03,20:30,25.6,42,22.9,23.9
 2003/10/03,20:45,25.5,41,22.8,24.1
 2003/10/03,21:00,25.6,40,22.7,24.1
 2003/10/03,21:15,25.6,40,22.7,24
 2003/10/03,21:30,25.6,40,22.6,23.9
 2003/10/03,21:45,25.7,40,22.5,23.9
 2003/10/03,22:00,25.9,41,22.5,23.9
 2003/10/03,22:15,25.7,42,22.4,23.9
 2003/10/03,22:30,25.6,44,22.3,23.9
 2003/10/03,22:45,25.8,44,22.2,23.9
 2003/10/03,23:00,25.8,44,22.2,23.9
 2003/10/03,23:15,25.6,46,22.2,23.8
 2003/10/03,23:30,25.5,46,22.1,23.8
 2003/10/03,23:45,25.6,45,22,23.8
 2003/10/04, 0:00,25.5,45,22,23.6
 2003/10/04, 0:15,25.3,45,21.8,23.6
 2003/10/04, 0:30,25.2,45,21.8,23.6
 2003/10/04, 0:45,25.2,45,21.7,23.5
 2003/10/04, 1:00,25.1,45,21.6,23.5
 2003/10/04, 1:15,24.9,45,21.6,23.5
 2003/10/04, 1:30,24.9,45,21.5,23.3
 2003/10/04, 1:45,24.7,45,21.5,23.3
 2003/10/04, 2:00,24.5,45,21.5,23.3
 2003/10/04, 2:15,24.5,45,21.5,23.3
 2003/10/04, 2:30,24.4,45,21.5,23.3
 2003/10/04, 2:45,24.3,45,21.4,23.3
 2003/10/04, 3:00,24.2,45,21.3,23.3
 2003/10/04, 3:15,24.1,45,21.2,23.3
 2003/10/04, 3:30,24,45,21.2,23.2
 2003/10/04, 3:45,23.8,45,21.1,23.2
 2003/10/04, 4:00,23.8,45,21,23.2
 2003/10/04, 4:15,23.7,45,20.9,23.2
 2003/10/04, 4:30,23.5,45,20.9,23.1
 2003/10/04, 4:45,23.5,45,20.8,23.1
 2003/10/04, 5:00,23.4,45,20.7,23.1
 2003/10/04, 5:15,23.2,45,20.7,23.1
 2003/10/04, 5:30,23.2,45,20.6,23.1
 2003/10/04, 5:45,23.3,49,20.5,23
 2003/10/04, 6:00,23.1,47,20.4,23
 2003/10/04, 6:15,23.1,48,20.4,23.2
 2003/10/04, 6:30,23.2,48,20.4,23.7
 2003/10/04, 6:45,23.3,47,20.3,23.7
 2003/10/04, 7:00,23,46,20.2,23.7
 2003/10/04, 7:15,23.1,45,20.2,23.7
 2003/10/04, 7:30,23.1,44,20.1,23.5
 2003/10/04, 7:45,22.9,44,20.2,23.8
 2003/10/04, 8:00,22.9,44,20.1,23.8
 2003/10/04, 8:15,22.9,45,20.3,23.8
 2003/10/04, 8:30,22.9,46,20.6,23.6
 2003/10/04, 8:45,23,46,20.9,23.6
 2003/10/04, 9:00,23.1,46,21.1,23.6
 2003/10/04, 9:15,23,45,21.2,23.5
 2003/10/04, 9:30,23.2,45,21.4,23.5
 2003/10/04, 9:45,23.3,45,21.6,23.5
 2003/10/04,10:00,23.4,45,21.8,23.2
 2003/10/04,10:15,23.4,45,22,23.2
 2003/10/04,10:30,23.4,46,22.1,23.2
 2003/10/04,10:45,23.6,45,22.3,23.2
 2003/10/04,11:00,23.7,45,22.4,23.1
 2003/10/04,11:15,23.8,46,22.5,23.2
 2003/10/04,11:30,23.8,46,22.5,23.2
 2003/10/04,11:45,24.2,54,22.6,23.2
 2003/10/04,12:00,24.1,50,22.7,23.6
 2003/10/04,12:15,24.2,47,22.7,23.6
 2003/10/04,12:30,24.2,46,22.7,23.5
 2003/10/04,12:45,24.1,46,22.8,23.5
 2003/10/04,13:00,24.2,45,22.8,23.5
 2003/10/04,13:15,24.2,45,22.8,23.5
 2003/10/04,13:30,24.2,45,22.9,23.5
 2003/10/04,13:45,24.3,46,22.9,23.5
 2003/10/04,14:00,24.3,44,23,23.5
 2003/10/04,14:15,24.2,42,23,23.5
 2003/10/04,14:30,24.2,39,23,23.6
 2003/10/04,14:45,24.3,39,23,23.6
 2003/10/04,15:00,24.2,39,23.1,23.6
 2003/10/04,15:15,24.4,39,23,23.8
 2003/10/04,15:30,24.6,39,23.1,23.8
 2003/10/04,15:45,24.8,40,23.1,23.8
 2003/10/04,16:00,25.2,39,23.1,23.8
 2003/10/04,16:15,25.4,38,23.2,23.8
 2003/10/04,16:30,25.5,38,22.8,23.7
 2003/10/04,16:45,25.5,38,23,23.9
 2003/10/04,17:00,25.6,40,22.9,23.8
 2003/10/04,17:15,25.7,42,22.9,23.8
 2003/10/04,17:30,25.6,45,22.8,23.8
 2003/10/04,17:45,25.7,44,22.8,23.6
 2003/10/04,18:00,25.8,44,22.7,24.2
 2003/10/04,18:15,25.8,45,22.7,24.1
 2003/10/04,18:30,25.9,45,22.6,24.1
 2003/10/04,18:45,26,47,22.6,24.1
 2003/10/04,19:00,26.1,48,22.5,23.7
 2003/10/04,19:15,25.9,48,22.4,24.1
 2003/10/04,19:30,25.8,50,22.3,24.1
 2003/10/04,19:45,25.7,48,22.2,23.9
 2003/10/04,20:00,25.8,51,22.1,23.9
 2003/10/04,20:15,25.8,52,22.3,24
 2003/10/04,20:30,25.8,50,22.1,23.7
 2003/10/04,20:45,25.6,49,22.1,23.7
 2003/10/04,21:00,25.6,48,22.1,23.7
 2003/10/04,21:15,25.6,52,22,23.7
 2003/10/04,21:30,25.5,50,21.8,23.7
 2003/10/04,21:45,25.5,49,21.9,23.7
 2003/10/04,22:00,25.2,49,22,23.7
 2003/10/04,22:15,25,49,22,23.4
 2003/10/04,22:30,25.1,49,21.7,23.4
 2003/10/04,22:45,25.2,49,21.6,23.4
 2003/10/04,23:00,25.3,49,21.6,23.3
 2003/10/04,23:15,25.3,49,21.6,23.8
 2003/10/04,23:30,25.3,48,21.5,23.6
 2003/10/04,23:45,25.2,47,21.3,23.6
 2003/10/05, 0:00,25.1,47,21.3,23.6
 2003/10/05, 0:15,25,47,21.2,23.3
 2003/10/05, 0:30,24.9,46,21.1,23.4
 2003/10/05, 0:45,24.7,47,21,23.5
 2003/10/05, 1:00,24.7,46,21,23.5
 2003/10/05, 1:15,24.5,46,20.8,23.5
 2003/10/05, 1:30,24.4,47,20.9,23.5
 2003/10/05, 1:45,24.3,47,20.7,23.4
 2003/10/05, 2:00,24.2,47,20.7,23.4
 2003/10/05, 2:15,24.1,47,20.5,23.4
 2003/10/05, 2:30,23.9,48,20.6,23.7
 2003/10/05, 2:45,23.8,47,20.5,23.7
 2003/10/05, 3:00,23.7,47,20.4,23.7
 2003/10/05, 3:15,23.5,47,20.4,23.6
 2003/10/05, 3:30,23.4,47,20.3,23.6
 2003/10/05, 3:45,23.4,46,20.3,23.6
 2003/10/05, 4:00,23.3,46,20.2,23
 2003/10/05, 4:15,23.2,46,20.2,23
 2003/10/05, 4:30,23.1,46,20.1,23
 2003/10/05, 4:45,22.9,46,20.1,23
 2003/10/05, 5:00,22.9,46,20,23
 2003/10/05, 5:15,22.8,46,20,23
 2003/10/05, 5:30,22.7,46,20,23
 2003/10/05, 5:45,22.6,46,19.9,22.9
 2003/10/05, 6:00,22.6,48,19.8,22.8
 2003/10/05, 6:15,22.7,47,19.9,22.8
 2003/10/05, 6:30,22.8,47,19.6,22.7
 2003/10/05, 6:45,22.8,47,19.4,22.7
 2003/10/05, 7:00,22.8,46,19.3,23.2
 2003/10/05, 7:15,23,47,19.4,24
 2003/10/05, 7:30,22.9,45,19.1,23.9
 2003/10/05, 7:45,23,46,19.4,23.9
 2003/10/05, 8:00,23,47,19.7,23.8
 2003/10/05, 8:15,23,47,19.7,23.8
 2003/10/05, 8:30,23,47,19.9,23.7
 2003/10/05, 8:45,23,47,20.2,23.1
 2003/10/05, 9:00,23.1,47,20.3,23.1
 2003/10/05, 9:15,23.2,47,20.4,23
 2003/10/05, 9:30,23.2,47,20.6,23
 2003/10/05, 9:45,23.1,47,20.8,23
 2003/10/05,10:00,23.2,47,21,22.9
 2003/10/05,10:15,23.3,45,21.2,22.9
 2003/10/05,10:30,23.3,45,21.4,22.9
 2003/10/05,10:45,23.3,44,21.5,22.9
 2003/10/05,11:00,23.4,43,21.5,22.9
 2003/10/05,11:15,23.3,43,21.5,22.8
 2003/10/05,11:30,23.4,42,21.5,22.8
 2003/10/05,11:45,23.4,42,21.6,22.7
 2003/10/05,12:00,23.4,42,21.7,22.7
 2003/10/05,12:15,23.4,42,21.7,23.6
 2003/10/05,12:30,23.4,42,21.7,23.6
 2003/10/05,12:45,23.5,41,21.8,23.6
 2003/10/05,13:00,23.5,41,21.9,23.4
 2003/10/05,13:15,23.7,46,21.9,23.8
 2003/10/05,13:30,23.8,44,22.1,23.8
 2003/10/05,13:45,23.8,44,22.1,23.7
 2003/10/05,14:00,23.9,46,22.2,23.6
 2003/10/05,14:15,24.1,46,22.2,23.6
 2003/10/05,14:30,24,44,22.3,23.6
 2003/10/05,14:45,23.9,44,22.3,23.6
 2003/10/05,15:00,24,43,22.3,23.6
 2003/10/05,15:15,24.2,43,22.4,23.5
 2003/10/05,15:30,24.1,43,22.4,23.5
 2003/10/05,15:45,24.2,43,22.5,23.5
 2003/10/05,16:00,24.4,43,22.5,23.5
 2003/10/05,16:15,24.4,43,22.5,23.5
 2003/10/05,16:30,24.4,43,22.5,23.5
 2003/10/05,16:45,24.5,42,22.5,23.4
 2003/10/05,17:00,24.6,42,22.5,23.4
 2003/10/05,17:15,24.7,42,22.3,23.4
 2003/10/05,17:30,24.6,39,22.1,23.4
 2003/10/05,17:45,24.5,38,22.2,23.4
 2003/10/05,18:00,24.4,39,22.2,23.4
 2003/10/05,18:15,24.5,41,22.1,23.4
 2003/10/05,18:30,24.6,42,22.2,23.6
 2003/10/05,18:45,24.6,44,22.2,23.8
 2003/10/05,19:00,25.4,47,22.1,23.8
 2003/10/05,19:15,25.9,51,22,23.8
 2003/10/05,19:30,25.6,49,22,23.3
 2003/10/05,19:45,25.3,43,22,23.7
 2003/10/05,20:00,25.2,40,21.9,23.7
 2003/10/05,20:15,24.9,39,21.9,23.7
 2003/10/05,20:30,24.6,39,21.9,24.1
 2003/10/05,20:45,24.6,41,21.9,23.9
 2003/10/05,21:00,24.7,41,21.8,23.9
 2003/10/05,21:15,24.7,41,21.7,23.6
 2003/10/05,21:30,24.6,42,21.7,23.6
 2003/10/05,21:45,24.8,45,21.6,23.7
 2003/10/05,22:00,25,47,21.6,23.7
 2003/10/05,22:15,24.9,48,21.6,23.7
 2003/10/05,22:30,24.7,48,21.5,23.6
 2003/10/05,22:45,24.7,48,21.5,23.6
 2003/10/05,23:00,24.9,48,21.5,23.3
 2003/10/05,23:15,25.1,48,21.4,23.3
 2003/10/05,23:30,24.9,49,21.5,23.3
 2003/10/05,23:45,24.9,49,21.4,23.3
 2003/10/06, 0:00,24.8,46,21.3,23.2
 2003/10/06, 0:15,24.6,46,21.4,23.2
 2003/10/06, 0:30,24.6,46,21.4,23.1
 2003/10/06, 0:45,24.5,45,21.3,23.1
 2003/10/06, 1:00,24.4,45,21.3,23.1
 2003/10/06, 1:15,24.3,45,21.3,23.1
 2003/10/06, 1:30,24.3,45,21.2,23.1
 2003/10/06, 1:45,24.2,45,21.2,23
 2003/10/06, 2:00,24.1,45,21.1,23
 2003/10/06, 2:15,24,45,21.1,23
 2003/10/06, 2:30,24,45,21.1,23
 2003/10/06, 2:45,23.9,45,21.1,23
 2003/10/06, 3:00,23.8,44,20.9,23
 2003/10/06, 3:15,23.8,44,20.9,22.9
 2003/10/06, 3:30,23.7,45,20.9,22.8
 2003/10/06, 3:45,23.6,44,20.8,22.8
 2003/10/06, 4:00,23.5,44,20.8,22.9
 2003/10/06, 4:15,23.4,45,20.8,22.9
 2003/10/06, 4:30,23.4,44,20.7,22.9
 2003/10/06, 4:45,23.4,44,20.7,22.8
 2003/10/06, 5:00,23.3,45,20.6,22.8
 2003/10/06, 5:15,23.2,45,20.6,22.8
 2003/10/06, 5:30,23.1,45,20.5,22.8
 2003/10/06, 5:45,23,45,20.5,22.8
 2003/10/06, 6:00,23,45,20.6,22.9
 2003/10/06, 6:15,23.1,52,20.4,22.9
 2003/10/06, 6:30,23.3,51,20.4,22.9
 2003/10/06, 6:45,23.6,53,20.4,23.4
 2003/10/06, 7:00,23.6,52,20.3,23.4
 2003/10/06, 7:15,23.8,48,20.2,23.6
 2003/10/06, 7:30,23.6,48,20.2,23.6
 2003/10/06, 7:45,23.5,47,20.1,23.6
 2003/10/06, 8:00,23.4,47,20.1,23.8
 2003/10/06, 8:15,23.4,47,20.1,23.8
 2003/10/06, 8:30,23.3,46,19.7,23.8
 2003/10/06, 8:45,23.2,48,20,23.8
 2003/10/06, 9:00,23.1,49,20,23.7
 2003/10/06, 9:15,23,47,19.9,23.7
 2003/10/06, 9:30,22.9,47,19.9,23.7
 2003/10/06, 9:45,22.9,47,19.9,23.2
 2003/10/06,10:00,22.9,47,19.9,23.1
 2003/10/06,10:15,22.7,48,19.9,23.1
 2003/10/06,10:30,22.6,48,19.9,23.1
 2003/10/06,10:45,22.6,49,19.9,23.1
 2003/10/06,11:00,22.7,48,19.9,23.1
 2003/10/06,11:15,22.7,48,20,23
 2003/10/06,11:30,22.7,48,20,23
 2003/10/06,11:45,22.6,49,20,23
 2003/10/06,12:00,22.6,49,20,23
 2003/10/06,12:15,22.6,49,20,22.9
 2003/10/06,12:30,22.5,49,20.1,22.9
 2003/10/06,12:45,22.5,49,20,22.9
 2003/10/06,13:00,22.4,49,19.9,22.9
 2003/10/06,13:15,22.4,49,19.9,22.8
 2003/10/06,13:30,22.3,49,19.9,22.8
 2003/10/06,13:45,22.2,49,19.8,22.8
 2003/10/06,14:00,22.2,49,19.7,22.8
 2003/10/06,14:15,22.1,49,19.6,22.8
 2003/10/06,14:30,22.1,49,19.6,22.7
 2003/10/06,14:45,21.9,50,19.7,22.7
 2003/10/06,15:00,22,51,19.5,22.7
 2003/10/06,15:15,21.9,50,19.5,22.6
 2003/10/06,15:30,21.9,50,19.4,22.6
 2003/10/06,15:45,21.9,50,19.3,22.6
 2003/10/06,16:00,21.9,49,19.3,22.6
 2003/10/06,16:15,21.8,50,19.2,22.6
 2003/10/06,16:30,21.8,50,19.1,22.5
 2003/10/06,16:45,21.8,50,19.1,22.4
 2003/10/06,17:00,21.7,50,19.2,22.4
 2003/10/06,17:15,21.8,51,19.2,23.1
 2003/10/06,17:30,21.8,51,19.3,23.3
 2003/10/06,17:45,22,58,19.1,23.3
 2003/10/06,18:00,22.4,62,19.1,23.5
 2003/10/06,18:15,22.2,57,19.1,23.5
 2003/10/06,18:30,22.1,54,19,23.4
 2003/10/06,18:45,22.1,54,19,23.4
 2003/10/06,19:00,22.2,53,19,23.4
 2003/10/06,19:15,22.1,54,19,23.3
 2003/10/06,19:30,22.2,55,19,23.3
 2003/10/06,19:45,22.2,59,19,23.6
 2003/10/06,20:00,22.1,57,18.9,23.6
 2003/10/06,20:15,22.1,57,18.9,23.5
 2003/10/06,20:30,22.2,58,18.9,23.5
 2003/10/06,20:45,22.2,59,18.8,23.4
 2003/10/06,21:00,22.2,58,18.9,23
 2003/10/06,21:15,22,56,18.7,23.2
 2003/10/06,21:30,22.2,57,18.7,23.2
 2003/10/06,21:45,22.1,56,18.6,23.1
 2003/10/06,22:00,22.1,55,18.6,23.1
 2003/10/06,22:15,21.9,54,18.5,22.8
 2003/10/06,22:30,21.9,53,18.6,22.8
 2003/10/06,22:45,21.7,52,18.4,22.8
 2003/10/06,23:00,21.7,52,18.4,22.8
 2003/10/06,23:15,21.6,52,18.4,23.5
 2003/10/06,23:30,21.5,52,18.4,23
 2003/10/06,23:45,21.4,52,18.4,22.9
 2003/10/07, 0:00,21.4,52,18.3,22.9
 2003/10/07, 0:15,21.3,52,18.3,22.9
 2003/10/07, 0:30,21.3,52,18.2,22.8
 2003/10/07, 0:45,21.1,52,18.2,22.8
 2003/10/07, 1:00,21.1,52,18.2,22.7
 2003/10/07, 1:15,21.2,52,18,22.7
 2003/10/07, 1:30,21.1,52,17.9,22.2
 2003/10/07, 1:45,20.9,52,18,22.2
 2003/10/07, 2:00,20.9,51,17.9,22.2
 2003/10/07, 2:15,21,51,18,22.1
 2003/10/07, 2:30,20.9,51,17.9,22.1
 2003/10/07, 2:45,20.9,51,17.9,22.1
 2003/10/07, 3:00,20.8,51,17.9,22
 2003/10/07, 3:15,20.8,51,17.8,22
 2003/10/07, 3:30,20.7,51,17.8,22
 2003/10/07, 3:45,20.7,51,17.9,21.9
 2003/10/07, 4:00,20.6,52,17.8,21.9
 2003/10/07, 4:15,20.6,52,17.7,21.9
 2003/10/07, 4:30,20.5,52,17.8,21.8
 2003/10/07, 4:45,20.5,52,17.7,21.8
 2003/10/07, 5:00,20.5,52,17.6,21.8
 2003/10/07, 5:15,20.3,52,17.6,21.7
 2003/10/07, 5:30,20.3,52,17.6,21.7
 2003/10/07, 5:45,20.3,52,17.7,21.7
 2003/10/07, 6:00,20.3,53,17.6,21.7
 2003/10/07, 6:15,20.5,60,17.5,21.7
 2003/10/07, 6:30,20.6,58,17.5,21.7
 2003/10/07, 6:45,20.8,57,17.5,23.2
 2003/10/07, 7:00,20.9,57,17.7,23.3
 2003/10/07, 7:15,21.3,59,17.6,23
 2003/10/07, 7:30,21.4,57,17.8,22.9
 2003/10/07, 7:45,21.3,58,17.7,23.7
 2003/10/07, 8:00,21.3,55,17.9,23.7
 2003/10/07, 8:15,21.1,55,18,23.6
 2003/10/07, 8:30,21.2,58,18,23.5
 2003/10/07, 8:45,21.1,56,18.2,23
 2003/10/07, 9:00,21,52,18.5,23
 2003/10/07, 9:15,20.7,50,18.5,22.9
 2003/10/07, 9:30,20.8,50,18.6,22.9
 2003/10/07, 9:45,20.7,51,18.6,22.8
 2003/10/07,10:00,20.8,51,18.7,22.8
 2003/10/07,10:15,20.7,51,18.8,22.8
 2003/10/07,10:30,20.8,51,18.9,22.7
 2003/10/07,10:45,20.8,51,19,22.7
 2003/10/07,11:00,20.9,50,19.2,22.6
 2003/10/07,11:15,20.9,50,19.1,22.6
 2003/10/07,11:30,20.9,50,19.4,22.5
 2003/10/07,11:45,20.9,50,19.3,22.5
 2003/10/07,12:00,21,50,19.4,22.5
 2003/10/07,12:15,21,50,19.4,22.4
 2003/10/07,12:30,21.1,49,19.5,22.4
 2003/10/07,12:45,21.1,49,19.6,22.3
 2003/10/07,13:00,21.2,49,19.6,22.3
 2003/10/07,13:15,21.3,49,19.8,22.3
 2003/10/07,13:30,21.3,49,19.9,22.2
 2003/10/07,13:45,21.4,48,19.9,22.2
 2003/10/07,14:00,21.4,48,20,22.2
 2003/10/07,14:15,21.5,48,20,22.1
 2003/10/07,14:30,21.5,48,20.1,22.1
 2003/10/07,14:45,21.7,48,20.2,22.1
 2003/10/07,15:00,21.7,48,20.4,22.1
 2003/10/07,15:15,22,48,20.5,22
 2003/10/07,15:30,21.9,48,20.5,23
 2003/10/07,15:45,22,48,20.6,23
 2003/10/07,16:00,22,48,20.5,23
 2003/10/07,16:15,22,48,20.6,22.9
 2003/10/07,16:30,22,48,20.6,22.9
 2003/10/07,16:45,22,48,20.6,22.9
 2003/10/07,17:00,22.1,48,20.6,22.8
 2003/10/07,17:15,22,48,20.6,22.8
 2003/10/07,17:30,22.1,48,20.6,22.8
 2003/10/07,17:45,22.2,49,20.5,22.9
 2003/10/07,18:00,22.6,56,20.5,22.9
 2003/10/07,18:15,22.6,56,20.5,22.9
 2003/10/07,18:30,22.7,58,20.4,22.9
 2003/10/07,18:45,22.8,56,20.5,22.9
 2003/10/07,19:00,23,54,20.6,22.9
 2003/10/07,19:15,22.9,54,20.5,23.1
 2003/10/07,19:30,23,54,20.5,23
 2003/10/07,19:45,23,55,20.5,23.2
 2003/10/07,20:00,23,58,20.7,23.2